UAL1128 KEWR-KMIA

Flight info

Callsign UAL1128
Flight time 2h 38m
Altitude 38000
Route ELVAE NECCK WHITE Q409 CRPLR BGBRD Q101 SKARP Y313 HOAGG BNFSH2
Aircraft B739/M-VGDW/C

Departure

Time 2026-05-04 01:43
Airport Newark Liberty International Airport (KEWR)

Arrival

Time 2026-05-04 04:22
Airport Miami International Airport (KMIA)
Time Latitude Longitude Altitude Speed Heading
2026-05-04 01:18 40.69711 -74.17472 24 ft 0 kts 304°
2026-05-04 01:32 40.69708 -74.17465 21 ft 2 kts 303°
2026-05-04 01:32 40.69699 -74.17447 21 ft 2 kts 303°
2026-05-04 01:33 40.69690 -74.17429 21 ft 2 kts 317°
2026-05-04 01:33 40.69675 -74.17426 23 ft 2 kts 36°
2026-05-04 01:33 40.69663 -74.17440 23 ft 2 kts 43°
2026-05-04 01:33 40.69658 -74.17445 22 ft 0 kts 41°
2026-05-04 01:37 40.69660 -74.17443 23 ft 2 kts 41°
2026-05-04 01:37 40.69696 -74.17403 21 ft 8 kts 40°
2026-05-04 01:37 40.69743 -74.17351 21 ft 9 kts 37°
2026-05-04 01:37 40.69786 -74.17298 21 ft 7 kts 66°
2026-05-04 01:38 40.69765 -74.17238 21 ft 8 kts 133°
2026-05-04 01:38 40.69727 -74.17193 23 ft 5 kts 142°
2026-05-04 01:38 40.69713 -74.17181 21 ft 2 kts 148°
2026-05-04 01:38 40.69687 -74.17160 21 ft 9 kts 149°
2026-05-04 01:39 40.69628 -74.17122 21 ft 10 kts 157°
2026-05-04 01:39 40.69606 -74.17054 21 ft 10 kts 70°
2026-05-04 01:39 40.69631 -74.16961 22 ft 12 kts 71°
2026-05-04 01:39 40.69659 -74.16853 23 ft 13 kts 71°
2026-05-04 01:40 40.69695 -74.16741 21 ft 12 kts 50°
2026-05-04 01:40 40.69771 -74.16685 20 ft 13 kts 25°
2026-05-04 01:40 40.69850 -74.16635 20 ft 12 kts 25°
2026-05-04 01:40 40.69926 -74.16587 20 ft 12 kts 26°
2026-05-04 01:41 40.70001 -74.16540 20 ft 12 kts 26°
2026-05-04 01:41 40.70057 -74.16499 20 ft 7 kts 51°
2026-05-04 01:41 40.70063 -74.16456 19 ft 0 kts 88°
2026-05-04 01:41 40.70063 -74.16453 19 ft 2 kts 89°
2026-05-04 01:42 40.70057 -74.16390 19 ft 9 kts 113°
2026-05-04 01:42 40.69999 -74.16383 18 ft 9 kts 200°
2026-05-04 01:42 40.69977 -74.16395 18 ft 0 kts 205°
2026-05-04 01:42 40.69968 -74.16402 18 ft 8 kts 206°
2026-05-04 01:43 40.69715 -74.16563 21 ft 74 kts 206°
2026-05-04 01:43 40.69058 -74.16979 22 ft 133 kts 206°
2026-05-04 01:43 40.68112 -74.17603 197 ft 161 kts 208°
2026-05-04 01:43 40.67087 -74.18279 737 ft 167 kts 208°
2026-05-04 01:44 40.65921 -74.18550 1312 ft 177 kts 179°
2026-05-04 01:44 40.64697 -74.18653 1842 ft 176 kts 210°
2026-05-04 01:44 40.63641 -74.19537 2160 ft 191 kts 221°
2026-05-04 01:44 40.62532 -74.20597 2604 ft 201 kts 221°
2026-05-04 01:45 40.61373 -74.21666 3120 ft 209 kts 220°
2026-05-04 01:45 40.60093 -74.22792 3348 ft 235 kts 219°
2026-05-04 01:45 40.57187 -74.25339 4445 ft 258 kts 219°
2026-05-04 01:46 40.55678 -74.26599 5165 ft 265 kts 211°
2026-05-04 01:46 40.53825 -74.27065 5906 ft 282 kts 178°
2026-05-04 01:46 40.51899 -74.26370 6662 ft 290 kts 163°
2026-05-04 01:46 40.49991 -74.25415 7284 ft 297 kts 162°
2026-05-04 01:47 40.48045 -74.24416 7944 ft 303 kts 162°
2026-05-04 01:47 40.46072 -74.23407 8633 ft 306 kts 161°
2026-05-04 01:47 40.44065 -74.22391 9314 ft 311 kts 161°
2026-05-04 01:47 40.42025 -74.21367 9989 ft 316 kts 161°
2026-05-04 01:48 40.40007 -74.20361 10399 ft 329 kts 161°
2026-05-04 01:48 40.37773 -74.19255 10584 ft 351 kts 161°
2026-05-04 01:48 40.35405 -74.18085 10755 ft 371 kts 161°
2026-05-04 01:48 40.32891 -74.16970 10906 ft 388 kts 169°
2026-05-04 01:49 40.30197 -74.16549 11093 ft 400 kts 184°
2026-05-04 01:49 40.27435 -74.16972 11557 ft 401 kts 196°
2026-05-04 01:49 40.24731 -74.17806 12158 ft 402 kts 197°
2026-05-04 01:49 40.21980 -74.18682 12851 ft 403 kts 197°
2026-05-04 01:50 40.19270 -74.19535 13518 ft 405 kts 197°
2026-05-04 01:50 40.16513 -74.20383 14134 ft 408 kts 196°
2026-05-04 01:50 40.13738 -74.21221 14757 ft 409 kts 196°
2026-05-04 01:50 40.10984 -74.22044 15400 ft 411 kts 197°
2026-05-04 01:51 40.08177 -74.22878 16039 ft 412 kts 197°
2026-05-04 01:51 40.05376 -74.23711 16656 ft 414 kts 197°
2026-05-04 01:51 40.02590 -74.24596 17247 ft 414 kts 202°
2026-05-04 01:51 39.99933 -74.26004 17854 ft 410 kts 212°
2026-05-04 01:52 39.97551 -74.27947 18434 ft 405 kts 221°
2026-05-04 01:52 39.95286 -74.30163 18966 ft 407 kts 222°
2026-05-04 01:52 39.93012 -74.32388 19471 ft 409 kts 222°
2026-05-04 01:52 39.90724 -74.34603 19987 ft 411 kts 221°
2026-05-04 01:53 39.88413 -74.36819 20467 ft 413 kts 221°
2026-05-04 01:53 39.86087 -74.39035 20937 ft 416 kts 221°
2026-05-04 01:53 39.83773 -74.41232 21453 ft 416 kts 222°
2026-05-04 01:53 39.81439 -74.43515 22088 ft 413 kts 226°
2026-05-04 01:54 39.79399 -74.46040 22533 ft 411 kts 232°
2026-05-04 01:54 39.77409 -74.48728 22941 ft 414 kts 232°
2026-05-04 01:54 39.75416 -74.51436 23397 ft 416 kts 232°
2026-05-04 01:54 39.73410 -74.54148 23821 ft 417 kts 232°
2026-05-04 01:55 39.71387 -74.56863 24212 ft 419 kts 232°
2026-05-04 01:55 39.69346 -74.59583 24601 ft 421 kts 232°
2026-05-04 01:55 39.67294 -74.62306 24965 ft 423 kts 232°
2026-05-04 01:55 39.65234 -74.65032 25321 ft 425 kts 232°
2026-05-04 01:56 39.63163 -74.67767 25675 ft 426 kts 232°
2026-05-04 01:56 39.61079 -74.70516 26028 ft 428 kts 232°
2026-05-04 01:56 39.58988 -74.73271 26392 ft 429 kts 232°
2026-05-04 01:56 39.56893 -74.76027 26877 ft 428 kts 232°
2026-05-04 01:57 39.54812 -74.78761 27465 ft 424 kts 232°
2026-05-04 01:57 39.52749 -74.81470 28031 ft 421 kts 233°
2026-05-04 01:57 39.50696 -74.84164 28537 ft 419 kts 233°
2026-05-04 01:57 39.48651 -74.86849 29036 ft 418 kts 233°
2026-05-04 01:58 39.46614 -74.89520 29615 ft 414 kts 233°
2026-05-04 01:58 39.44604 -74.92151 30283 ft 408 kts 233°
2026-05-04 01:58 39.42618 -74.94749 30746 ft 406 kts 233°
2026-05-04 01:58 39.40639 -74.97340 31137 ft 405 kts 233°
2026-05-04 01:59 39.38660 -74.99929 31550 ft 403 kts 233°
2026-05-04 01:59 39.36696 -75.02495 32041 ft 400 kts 232°
2026-05-04 01:59 39.34749 -75.05036 32514 ft 396 kts 232°
2026-05-04 01:59 39.32812 -75.07562 32877 ft 396 kts 232°
2026-05-04 02:00 39.30872 -75.10092 33141 ft 397 kts 232°
2026-05-04 02:00 39.28923 -75.12607 33462 ft 395 kts 231°
2026-05-04 02:00 39.26979 -75.15047 34189 ft 385 kts 231°
2026-05-04 02:00 39.25054 -75.17441 34492 ft 385 kts 231°
2026-05-04 02:01 39.21151 -75.22312 34662 ft 393 kts 231°
2026-05-04 02:01 39.19193 -75.24754 34927 ft 392 kts 231°
2026-05-04 02:01 39.17256 -75.27169 35165 ft 392 kts 231°
2026-05-04 02:02 39.15269 -75.29649 35332 ft 394 kts 231°
2026-05-04 02:02 39.13328 -75.32070 35523 ft 394 kts 231°
2026-05-04 02:02 39.11356 -75.34527 35737 ft 395 kts 231°
2026-05-04 02:02 39.09378 -75.36989 35925 ft 394 kts 231°
2026-05-04 02:03 39.07411 -75.39427 36250 ft 393 kts 230°
2026-05-04 02:03 39.05195 -75.41565 36416 ft 406 kts 218°
2026-05-04 02:03 39.02630 -75.43186 36565 ft 416 kts 211°
2026-05-04 02:03 38.99847 -75.44382 36696 ft 429 kts 202°
2026-05-04 02:04 38.96842 -75.44958 36873 ft 439 kts 196°
2026-05-04 02:04 38.93797 -75.45353 37070 ft 440 kts 195°
2026-05-04 02:04 38.90747 -75.45720 37283 ft 440 kts 195°
2026-05-04 02:04 38.87702 -75.46098 37485 ft 439 kts 196°
2026-05-04 02:05 38.84677 -75.46496 37761 ft 437 kts 197°
2026-05-04 02:05 38.81649 -75.46912 37933 ft 437 kts 197°
2026-05-04 02:05 38.78629 -75.47339 38041 ft 438 kts 197°
2026-05-04 02:05 38.75588 -75.47768 38068 ft 440 kts 197°
2026-05-04 02:06 38.69508 -75.48611 38070 ft 439 kts 196°
2026-05-04 02:06 38.63452 -75.49424 38055 ft 436 kts 197°
2026-05-04 02:07 38.57432 -75.50233 38069 ft 434 kts 197°
2026-05-04 02:07 38.51437 -75.51041 38080 ft 433 kts 197°
2026-05-04 02:08 38.45454 -75.51848 38094 ft 432 kts 197°
2026-05-04 02:08 38.39476 -75.52651 38089 ft 431 kts 197°
2026-05-04 02:09 38.33812 -75.54295 38097 ft 411 kts 211°
2026-05-04 02:09 38.28856 -75.57701 38095 ft 397 kts 223°
2026-05-04 02:10 38.24325 -75.61699 38097 ft 400 kts 223°
2026-05-04 02:10 38.19730 -75.65737 38083 ft 403 kts 222°
2026-05-04 02:11 38.15099 -75.69774 38083 ft 404 kts 222°
2026-05-04 02:11 38.10455 -75.73804 38078 ft 405 kts 222°
2026-05-04 02:12 38.05806 -75.77831 38075 ft 404 kts 222°
2026-05-04 02:12 38.01165 -75.81846 38051 ft 403 kts 222°
2026-05-04 02:13 37.96548 -75.85832 38086 ft 400 kts 222°
2026-05-04 02:13 37.91959 -75.89790 38089 ft 398 kts 222°
2026-05-04 02:14 37.88157 -75.93065 38100 ft 397 kts 222°
2026-05-04 02:14 37.83594 -75.96991 38092 ft 396 kts 222°
2026-05-04 02:15 37.79050 -76.00894 38091 ft 394 kts 221°
2026-05-04 02:15 37.74524 -76.04775 38094 ft 392 kts 221°
2026-05-04 02:16 37.70013 -76.08640 38089 ft 391 kts 221°
2026-05-04 02:16 37.65517 -76.12485 38094 ft 390 kts 221°
2026-05-04 02:17 37.60763 -76.15922 38108 ft 401 kts 211°
2026-05-04 02:17 37.55311 -76.17893 38110 ft 416 kts 200°
2026-05-04 02:18 37.49587 -76.19139 38104 ft 418 kts 200°
2026-05-04 02:18 37.43854 -76.20374 38106 ft 418 kts 200°
2026-05-04 02:19 37.38117 -76.21633 38094 ft 419 kts 200°
2026-05-04 02:19 37.32395 -76.22898 38094 ft 417 kts 200°
2026-05-04 02:20 37.26685 -76.24163 38104 ft 416 kts 200°
2026-05-04 02:20 37.20987 -76.25425 38105 ft 415 kts 200°
2026-05-04 02:21 37.15302 -76.26682 38106 ft 414 kts 200°
2026-05-04 02:21 37.09641 -76.27931 38102 ft 412 kts 200°
2026-05-04 02:22 37.04006 -76.29173 38110 ft 411 kts 200°
2026-05-04 02:22 36.98415 -76.30405 38101 ft 410 kts 200°
2026-05-04 02:23 36.92761 -76.31648 38102 ft 410 kts 200°
2026-05-04 02:23 36.87200 -76.32868 38094 ft 408 kts 200°
2026-05-04 02:24 36.81609 -76.34093 38141 ft 408 kts 200°
2026-05-04 02:24 36.76013 -76.35318 38139 ft 407 kts 200°
2026-05-04 02:25 36.70434 -76.36537 38156 ft 407 kts 200°
2026-05-04 02:25 36.64851 -76.37754 38155 ft 406 kts 200°
2026-05-04 02:26 36.59277 -76.38969 38155 ft 406 kts 200°
2026-05-04 02:26 36.53708 -76.40180 38112 ft 406 kts 200°
2026-05-04 02:27 36.48134 -76.41392 38121 ft 407 kts 200°
2026-05-04 02:27 36.42555 -76.42601 38107 ft 406 kts 200°
2026-05-04 02:28 36.36990 -76.43806 38123 ft 406 kts 200°
2026-05-04 02:28 36.31423 -76.45010 38132 ft 406 kts 200°
2026-05-04 02:29 36.25859 -76.46212 38135 ft 407 kts 200°
2026-05-04 02:29 36.20276 -76.47416 38113 ft 407 kts 200°
2026-05-04 02:30 36.14740 -76.48607 38138 ft 407 kts 200°
2026-05-04 02:30 36.09160 -76.49807 38153 ft 407 kts 200°
2026-05-04 02:31 36.03574 -76.51007 38163 ft 408 kts 200°
2026-05-04 02:31 35.97978 -76.52207 38109 ft 408 kts 200°
2026-05-04 02:32 35.92397 -76.53401 38144 ft 407 kts 200°
2026-05-04 02:32 35.87128 -76.55437 38147 ft 388 kts 215°
2026-05-04 02:33 35.82322 -76.58457 38113 ft 388 kts 215°
2026-05-04 02:33 35.77492 -76.61457 38124 ft 389 kts 215°
2026-05-04 02:34 35.72649 -76.64443 38120 ft 389 kts 214°
2026-05-04 02:34 35.67799 -76.67424 38122 ft 390 kts 214°
2026-05-04 02:35 35.62938 -76.70407 38120 ft 391 kts 214°
2026-05-04 02:35 35.58066 -76.73392 38120 ft 391 kts 214°
2026-05-04 02:36 35.53191 -76.76375 38127 ft 391 kts 214°
2026-05-04 02:36 35.48320 -76.79352 38125 ft 390 kts 214°
2026-05-04 02:37 35.43464 -76.82315 38120 ft 390 kts 214°
2026-05-04 02:37 35.38610 -76.85275 38120 ft 389 kts 214°
2026-05-04 02:38 35.33759 -76.88229 38134 ft 390 kts 214°
2026-05-04 02:38 35.28891 -76.91190 38130 ft 391 kts 214°
2026-05-04 02:39 35.24052 -76.94127 38129 ft 391 kts 214°
2026-05-04 02:39 35.19206 -76.97138 38125 ft 390 kts 215°
2026-05-04 02:40 35.14374 -77.00178 38148 ft 391 kts 215°
2026-05-04 02:40 35.09540 -77.03211 38148 ft 391 kts 215°
2026-05-04 02:41 35.04700 -77.06238 38119 ft 390 kts 214°
2026-05-04 02:41 34.99873 -77.09249 38148 ft 390 kts 214°
2026-05-04 02:42 34.95045 -77.12257 38143 ft 389 kts 214°
2026-05-04 02:42 34.90220 -77.15260 38147 ft 389 kts 214°
2026-05-04 02:43 34.85396 -77.18258 38129 ft 389 kts 214°
2026-05-04 02:43 34.80575 -77.21250 38096 ft 388 kts 214°
2026-05-04 02:44 34.75773 -77.24226 38132 ft 388 kts 214°
2026-05-04 02:44 34.70965 -77.27203 38141 ft 388 kts 214°
2026-05-04 02:45 34.66149 -77.30181 38137 ft 389 kts 214°
2026-05-04 02:45 34.61323 -77.33160 38139 ft 389 kts 214°
2026-05-04 02:46 34.56500 -77.36136 38132 ft 389 kts 214°
2026-05-04 02:46 34.51675 -77.39107 38135 ft 389 kts 214°
2026-05-04 02:47 34.46548 -77.41434 38143 ft 402 kts 201°
2026-05-04 02:47 34.40977 -77.42546 38137 ft 407 kts 198°
2026-05-04 02:48 34.35429 -77.43599 38142 ft 406 kts 198°
2026-05-04 02:48 34.29859 -77.44674 38139 ft 404 kts 199°
2026-05-04 02:49 34.24298 -77.45758 38146 ft 404 kts 199°
2026-05-04 02:49 34.18751 -77.46843 38149 ft 404 kts 199°
2026-05-04 02:50 34.13200 -77.47926 38150 ft 404 kts 199°
2026-05-04 02:50 34.07650 -77.49008 38117 ft 403 kts 199°
2026-05-04 02:51 34.02114 -77.50084 38151 ft 403 kts 199°
2026-05-04 02:51 33.96579 -77.51160 38153 ft 403 kts 199°
2026-05-04 02:52 33.91046 -77.52234 38150 ft 403 kts 199°
2026-05-04 02:52 33.85511 -77.53307 38150 ft 403 kts 199°
2026-05-04 02:53 33.80018 -77.54370 38148 ft 402 kts 199°
2026-05-04 02:53 33.74489 -77.55438 38158 ft 402 kts 199°
2026-05-04 02:54 33.68973 -77.56504 38154 ft 402 kts 199°
2026-05-04 02:54 33.63455 -77.57568 38157 ft 401 kts 199°
2026-05-04 02:55 33.55295 -77.59473 38181 ft 391 kts 205°
2026-05-04 02:56 33.50084 -77.61333 38163 ft 391 kts 206°
2026-05-04 02:56 33.44866 -77.63210 38168 ft 392 kts 205°
2026-05-04 02:57 33.39626 -77.65063 38169 ft 393 kts 205°
2026-05-04 02:57 33.34370 -77.66904 38165 ft 394 kts 205°
2026-05-04 02:58 33.29112 -77.68738 38147 ft 393 kts 205°
2026-05-04 02:58 33.23857 -77.70568 38170 ft 393 kts 205°
2026-05-04 02:59 33.18639 -77.72383 38172 ft 393 kts 205°
2026-05-04 02:59 33.13386 -77.74209 38172 ft 393 kts 205°
2026-05-04 03:00 33.08135 -77.76031 38156 ft 393 kts 205°
2026-05-04 03:00 33.02898 -77.77846 38161 ft 391 kts 205°
2026-05-04 03:01 32.97675 -77.79654 38173 ft 390 kts 205°
2026-05-04 03:01 32.92464 -77.81457 38172 ft 390 kts 205°
2026-05-04 03:02 32.87254 -77.83257 38167 ft 390 kts 205°
2026-05-04 03:02 32.82895 -77.84761 38170 ft 390 kts 205°
2026-05-04 03:03 32.77694 -77.86554 38171 ft 390 kts 205°
2026-05-04 03:03 32.72490 -77.88346 38171 ft 390 kts 205°
2026-05-04 03:04 32.67314 -77.90125 38171 ft 390 kts 205°
2026-05-04 03:04 32.62080 -77.91857 38172 ft 391 kts 205°
2026-05-04 03:05 32.56829 -77.93546 38129 ft 391 kts 205°
2026-05-04 03:05 32.51596 -77.95229 38162 ft 389 kts 205°
2026-05-04 03:06 32.46368 -77.96919 38171 ft 390 kts 205°
2026-05-04 03:06 32.41132 -77.98611 38172 ft 391 kts 205°
2026-05-04 03:07 32.35882 -78.00307 38176 ft 392 kts 205°
2026-05-04 03:07 32.30615 -78.02005 38134 ft 392 kts 205°
2026-05-04 03:08 32.25360 -78.03696 38168 ft 391 kts 205°
2026-05-04 03:08 32.20106 -78.05386 38171 ft 391 kts 205°
2026-05-04 03:09 32.14857 -78.07072 38172 ft 391 kts 205°
2026-05-04 03:09 32.09611 -78.08756 38176 ft 391 kts 205°
2026-05-04 03:10 32.04366 -78.10438 38120 ft 390 kts 205°
2026-05-04 03:10 31.99181 -78.12096 38157 ft 388 kts 205°
2026-05-04 03:11 31.93977 -78.13760 38167 ft 387 kts 205°
2026-05-04 03:11 31.88782 -78.15420 38173 ft 387 kts 205°
2026-05-04 03:12 31.83591 -78.17077 38178 ft 386 kts 205°
2026-05-04 03:12 31.78407 -78.18729 38142 ft 386 kts 205°
2026-05-04 03:13 31.73235 -78.20375 38165 ft 385 kts 205°
2026-05-04 03:13 31.68075 -78.22016 38169 ft 384 kts 205°
2026-05-04 03:14 31.62916 -78.23655 38172 ft 384 kts 205°
2026-05-04 03:14 31.57751 -78.25294 38172 ft 384 kts 205°
2026-05-04 03:15 31.52587 -78.26931 38099 ft 384 kts 205°
2026-05-04 03:15 31.47448 -78.28556 38149 ft 382 kts 205°
2026-05-04 03:16 31.42348 -78.30229 38163 ft 380 kts 206°
2026-05-04 03:16 31.37273 -78.31941 38169 ft 379 kts 206°
2026-05-04 03:17 31.32208 -78.33646 38169 ft 379 kts 206°
2026-05-04 03:17 31.27136 -78.35346 38166 ft 379 kts 206°
2026-05-04 03:18 31.22116 -78.37022 38150 ft 377 kts 206°
2026-05-04 03:18 31.17081 -78.38702 38164 ft 376 kts 206°
2026-05-04 03:19 31.12052 -78.40378 38167 ft 376 kts 206°
2026-05-04 03:19 31.07028 -78.42051 38166 ft 375 kts 206°
2026-05-04 03:20 31.02002 -78.43722 38166 ft 375 kts 206°
2026-05-04 03:20 30.96983 -78.45389 38161 ft 374 kts 206°
2026-05-04 03:21 30.91978 -78.47048 38162 ft 373 kts 206°
2026-05-04 03:21 30.86982 -78.48704 38160 ft 373 kts 206°
2026-05-04 03:22 30.81993 -78.50356 38160 ft 373 kts 206°
2026-05-04 03:22 30.77003 -78.52007 38162 ft 373 kts 206°
2026-05-04 03:23 30.72012 -78.53656 38102 ft 372 kts 206°
2026-05-04 03:23 30.67046 -78.55293 38144 ft 371 kts 206°
2026-05-04 03:24 30.62089 -78.56927 38155 ft 370 kts 207°
2026-05-04 03:24 30.57133 -78.58560 38160 ft 370 kts 206°
2026-05-04 03:25 30.52170 -78.60193 38157 ft 370 kts 206°
2026-05-04 03:25 30.47215 -78.61821 38147 ft 371 kts 206°
2026-05-04 03:26 30.42253 -78.63449 38143 ft 370 kts 207°
2026-05-04 03:26 30.37332 -78.65063 38151 ft 370 kts 207°
2026-05-04 03:27 30.32384 -78.66684 38154 ft 370 kts 207°
2026-05-04 03:27 30.27430 -78.68306 38162 ft 370 kts 207°
2026-05-04 03:28 30.22461 -78.69930 38152 ft 372 kts 206°
2026-05-04 03:28 30.17487 -78.71556 38143 ft 373 kts 206°
2026-05-04 03:29 30.12494 -78.73189 38143 ft 373 kts 206°
2026-05-04 03:29 30.07493 -78.74823 38147 ft 374 kts 206°
2026-05-04 03:30 30.02491 -78.76456 38141 ft 374 kts 206°
2026-05-04 03:30 29.97488 -78.78088 38146 ft 374 kts 206°
2026-05-04 03:31 29.92482 -78.79719 38137 ft 374 kts 206°
2026-05-04 03:31 29.87492 -78.81342 38130 ft 371 kts 207°
2026-05-04 03:32 29.82521 -78.82960 38137 ft 371 kts 207°
2026-05-04 03:32 29.77527 -78.84501 38125 ft 378 kts 202°
2026-05-04 03:33 29.72249 -78.85273 38125 ft 384 kts 199°
2026-05-04 03:33 29.66937 -78.85911 38127 ft 384 kts 199°
2026-05-04 03:34 29.61634 -78.86578 38107 ft 383 kts 200°
2026-05-04 03:34 29.56344 -78.87274 38122 ft 382 kts 200°
2026-05-04 03:35 29.51054 -78.87983 38125 ft 383 kts 200°
2026-05-04 03:35 29.45760 -78.88694 38120 ft 383 kts 200°
2026-05-04 03:36 29.40456 -78.89406 38123 ft 384 kts 200°
2026-05-04 03:36 29.35151 -78.90117 38065 ft 384 kts 200°
2026-05-04 03:37 29.29850 -78.90827 38103 ft 384 kts 200°
2026-05-04 03:37 29.24529 -78.91539 38114 ft 385 kts 200°
2026-05-04 03:38 29.19228 -78.92248 38113 ft 386 kts 200°
2026-05-04 03:38 29.13885 -78.92961 38111 ft 387 kts 200°
2026-05-04 03:39 29.08545 -78.93672 38106 ft 387 kts 200°
2026-05-04 03:39 29.03199 -78.94383 38102 ft 386 kts 200°
2026-05-04 03:40 28.97846 -78.95096 38106 ft 388 kts 200°
2026-05-04 03:40 28.92475 -78.95811 38105 ft 389 kts 200°
2026-05-04 03:41 28.87095 -78.96525 38098 ft 390 kts 200°
2026-05-04 03:41 28.81702 -78.97240 38098 ft 390 kts 200°
2026-05-04 03:42 28.76309 -78.97953 38081 ft 390 kts 199°
2026-05-04 03:42 28.70912 -78.98668 38092 ft 391 kts 199°
2026-05-04 03:43 28.65502 -78.99383 38084 ft 391 kts 199°
2026-05-04 03:43 28.60090 -79.00098 38088 ft 392 kts 199°
2026-05-04 03:44 28.54676 -79.00812 38082 ft 392 kts 199°
2026-05-04 03:44 28.49256 -79.01527 38039 ft 392 kts 199°
2026-05-04 03:45 28.43832 -79.02241 38070 ft 393 kts 199°
2026-05-04 03:45 28.38395 -79.02957 38077 ft 394 kts 199°
2026-05-04 03:46 28.33039 -79.03836 38060 ft 382 kts 207°
2026-05-04 03:46 28.28040 -79.05697 38086 ft 378 kts 209°
2026-05-04 03:47 28.23014 -79.07635 38082 ft 379 kts 209°
2026-05-04 03:47 28.18025 -79.09493 38069 ft 380 kts 208°
2026-05-04 03:48 28.12982 -79.11366 38075 ft 382 kts 208°
2026-05-04 03:48 28.07915 -79.13252 38068 ft 384 kts 208°
2026-05-04 03:49 28.02838 -79.15143 38069 ft 385 kts 208°
2026-05-04 03:49 27.98574 -79.16731 38064 ft 385 kts 208°
2026-05-04 03:50 27.93520 -79.18611 38011 ft 385 kts 208°
2026-05-04 03:50 27.88395 -79.20516 38048 ft 386 kts 208°
2026-05-04 03:51 27.83324 -79.22400 38061 ft 387 kts 208°
2026-05-04 03:51 27.78206 -79.24299 38062 ft 388 kts 208°
2026-05-04 03:52 27.73078 -79.26199 38060 ft 388 kts 208°
2026-05-04 03:52 27.67936 -79.28104 37708 ft 389 kts 208°
2026-05-04 03:52 27.65387 -79.29043 37430 ft 382 kts 208°
2026-05-04 03:53 27.62858 -79.29977 37130 ft 384 kts 208°
2026-05-04 03:53 27.60307 -79.30924 36890 ft 388 kts 207°
2026-05-04 03:53 27.57737 -79.31876 36638 ft 390 kts 207°
2026-05-04 03:53 27.55156 -79.32831 36399 ft 392 kts 207°
2026-05-04 03:54 27.52556 -79.33792 36162 ft 394 kts 207°
2026-05-04 03:54 27.49943 -79.34755 35918 ft 396 kts 207°
2026-05-04 03:54 27.47316 -79.35724 35671 ft 397 kts 206°
2026-05-04 03:54 27.44688 -79.36691 35452 ft 398 kts 206°
2026-05-04 03:55 27.42053 -79.37661 35213 ft 399 kts 206°
2026-05-04 03:55 27.39416 -79.38631 34975 ft 399 kts 206°
2026-05-04 03:55 27.36779 -79.39601 34747 ft 399 kts 206°
2026-05-04 03:55 27.34142 -79.40571 34518 ft 399 kts 206°
2026-05-04 03:56 27.31507 -79.41540 34293 ft 398 kts 206°
2026-05-04 03:56 27.28871 -79.42508 34056 ft 398 kts 205°
2026-05-04 03:56 27.26237 -79.43471 33825 ft 399 kts 206°
2026-05-04 03:56 27.23596 -79.44437 33568 ft 399 kts 206°
2026-05-04 03:57 27.20953 -79.45404 33311 ft 400 kts 206°
2026-05-04 03:57 27.18307 -79.46372 33055 ft 401 kts 206°
2026-05-04 03:57 27.15648 -79.47345 32803 ft 403 kts 206°
2026-05-04 03:57 27.12978 -79.48321 32552 ft 403 kts 206°
2026-05-04 03:58 27.07644 -79.50268 31437 ft 405 kts 205°
2026-05-04 03:58 27.04984 -79.51235 30636 ft 397 kts 205°
2026-05-04 03:58 27.02351 -79.52194 29228 ft 401 kts 205°
2026-05-04 03:59 26.99725 -79.53153 28147 ft 399 kts 205°
2026-05-04 03:59 26.97070 -79.54118 27256 ft 392 kts 205°
2026-05-04 03:59 26.94541 -79.55037 26592 ft 384 kts 205°
2026-05-04 03:59 26.91994 -79.55966 25930 ft 388 kts 205°
2026-05-04 04:00 26.89380 -79.56924 25265 ft 403 kts 204°
2026-05-04 04:00 26.86665 -79.57916 24475 ft 417 kts 204°
2026-05-04 04:00 26.83934 -79.58899 23726 ft 406 kts 204°
2026-05-04 04:00 26.81281 -79.59844 22927 ft 393 kts 204°
2026-05-04 04:01 26.78752 -79.60746 22200 ft 380 kts 204°
2026-05-04 04:01 26.76292 -79.61628 21547 ft 369 kts 204°
2026-05-04 04:01 26.73867 -79.62503 20917 ft 364 kts 204°
2026-05-04 04:01 26.71447 -79.63381 20305 ft 370 kts 204°
2026-05-04 04:02 26.68983 -79.64274 20173 ft 376 kts 204°
2026-05-04 04:02 26.66484 -79.65176 19980 ft 372 kts 203°
2026-05-04 04:02 26.64091 -79.66027 19796 ft 350 kts 204°
2026-05-04 04:02 26.61837 -79.66828 19511 ft 333 kts 204°
2026-05-04 04:03 26.59649 -79.67599 19060 ft 328 kts 204°
2026-05-04 04:03 26.57471 -79.68364 18613 ft 327 kts 203°
2026-05-04 04:03 26.55302 -79.69125 18133 ft 327 kts 203°
2026-05-04 04:03 26.53128 -79.69887 17629 ft 327 kts 203°
2026-05-04 04:04 26.50965 -79.70643 17176 ft 326 kts 203°
2026-05-04 04:04 26.48811 -79.71396 17083 ft 323 kts 203°
2026-05-04 04:04 26.46684 -79.72194 16980 ft 319 kts 209°
2026-05-04 04:04 26.44866 -79.73537 16559 ft 311 kts 226°
2026-05-04 04:05 26.43361 -79.75284 15833 ft 316 kts 230°
2026-05-04 04:05 26.41902 -79.77117 15545 ft 311 kts 231°
2026-05-04 04:05 26.40457 -79.78915 15296 ft 312 kts 230°
2026-05-04 04:05 26.38983 -79.80726 15111 ft 319 kts 230°
2026-05-04 04:06 26.37555 -79.82633 14919 ft 322 kts 236°
2026-05-04 04:06 26.36292 -79.84693 14714 ft 320 kts 238°
2026-05-04 04:06 26.35073 -79.86725 14497 ft 311 kts 237°
2026-05-04 04:06 26.33870 -79.88689 14318 ft 302 kts 237°
2026-05-04 04:07 26.32693 -79.90583 14131 ft 293 kts 237°
2026-05-04 04:07 26.31546 -79.92423 13963 ft 285 kts 237°
2026-05-04 04:07 26.30443 -79.94184 13767 ft 278 kts 237°
2026-05-04 04:07 26.29346 -79.95936 13592 ft 274 kts 237°
2026-05-04 04:08 26.28259 -79.97671 13428 ft 274 kts 237°
2026-05-04 04:08 26.27163 -79.99419 13259 ft 276 kts 237°
2026-05-04 04:08 26.25998 -80.01127 13075 ft 281 kts 226°
2026-05-04 04:08 26.24350 -80.02324 12914 ft 287 kts 208°
2026-05-04 04:09 26.22414 -80.02962 12742 ft 293 kts 197°
2026-05-04 04:09 26.20398 -80.03408 12541 ft 297 kts 195°
2026-05-04 04:09 26.18381 -80.03835 12359 ft 296 kts 195°
2026-05-04 04:09 26.16370 -80.04267 12169 ft 293 kts 195°
2026-05-04 04:10 26.15508 -80.04456 12093 ft 291 kts 195°
2026-05-04 04:10 26.14198 -80.04747 11967 ft 289 kts 196°
2026-05-04 04:10 26.12241 -80.05187 11789 ft 285 kts 196°
2026-05-04 04:11 26.10303 -80.05628 11615 ft 283 kts 196°
2026-05-04 04:11 26.08384 -80.06066 11390 ft 281 kts 196°
2026-05-04 04:11 26.06461 -80.06512 11058 ft 284 kts 197°
2026-05-04 04:11 26.04575 -80.06993 10924 ft 274 kts 197°
2026-05-04 04:12 26.02697 -80.07488 10544 ft 277 kts 198°
2026-05-04 04:12 26.00808 -80.07986 10256 ft 278 kts 197°
2026-05-04 04:12 25.98935 -80.08475 10023 ft 274 kts 197°
2026-05-04 04:12 25.97092 -80.08954 9771 ft 270 kts 197°
2026-05-04 04:13 25.95274 -80.09426 9443 ft 269 kts 197°
2026-05-04 04:13 25.93460 -80.09900 9156 ft 265 kts 199°
2026-05-04 04:13 25.91856 -80.10797 8909 ft 255 kts 221°
2026-05-04 04:13 25.90595 -80.12153 8745 ft 254 kts 229°
2026-05-04 04:14 25.89414 -80.13621 8567 ft 255 kts 230°
2026-05-04 04:14 25.88344 -80.15194 8363 ft 257 kts 245°
2026-05-04 04:14 25.87865 -80.17096 8205 ft 257 kts 262°
2026-05-04 04:14 25.87764 -80.19075 8010 ft 258 kts 267°
2026-05-04 04:15 25.87742 -80.21086 7703 ft 262 kts 268°
2026-05-04 04:15 25.87709 -80.23078 7407 ft 260 kts 267°
2026-05-04 04:15 25.87659 -80.25077 7107 ft 259 kts 266°
2026-05-04 04:15 25.87601 -80.27072 6806 ft 258 kts 266°
2026-05-04 04:16 25.87540 -80.29059 6513 ft 256 kts 266°
2026-05-04 04:16 25.87477 -80.31030 6200 ft 255 kts 266°
2026-05-04 04:16 25.87414 -80.32999 5883 ft 254 kts 266°
2026-05-04 04:16 25.87350 -80.34954 5587 ft 253 kts 266°
2026-05-04 04:17 25.87286 -80.36908 5288 ft 252 kts 267°
2026-05-04 04:17 25.87222 -80.38843 5057 ft 250 kts 266°
2026-05-04 04:17 25.87105 -80.40795 4725 ft 261 kts 264°
2026-05-04 04:17 25.86950 -80.42800 4400 ft 261 kts 264°
2026-05-04 04:18 25.86782 -80.44798 4102 ft 258 kts 264°
2026-05-04 04:18 25.86529 -80.46739 3889 ft 251 kts 250°
2026-05-04 04:18 25.85593 -80.48290 3895 ft 241 kts 220°
2026-05-04 04:18 25.84084 -80.49061 3902 ft 245 kts 190°
2026-05-04 04:19 25.82347 -80.48998 3910 ft 254 kts 175°
2026-05-04 04:19 25.80588 -80.48702 3900 ft 258 kts 171°
2026-05-04 04:19 25.78935 -80.47915 3683 ft 264 kts 141°
2026-05-04 04:19 25.77931 -80.46252 3248 ft 265 kts 105°
2026-05-04 04:20 25.77898 -80.44227 2740 ft 266 kts 82°
2026-05-04 04:20 25.78163 -80.42181 2165 ft 268 kts 85°
2026-05-04 04:20 25.78280 -80.40139 1673 ft 266 kts 88°
2026-05-04 04:20 25.78341 -80.38228 1308 ft 246 kts 88°
2026-05-04 04:21 25.78413 -80.36416 975 ft 224 kts 87°
2026-05-04 04:21 25.78480 -80.34774 702 ft 206 kts 86°
2026-05-04 04:21 25.78534 -80.33245 456 ft 191 kts 86°
2026-05-04 04:21 25.78598 -80.31869 205 ft 170 kts 85°
2026-05-04 04:22 25.78646 -80.30645 27 ft 146 kts 85°
2026-05-04 04:22 25.78678 -80.29683 14 ft 114 kts 89°
2026-05-04 04:22 25.78713 -80.29008 13 ft 47 kts 88°
2026-05-04 04:22 25.78727 -80.28720 15 ft 28 kts 86°
2026-05-04 04:23 25.78751 -80.28537 14 ft 16 kts 73°
2026-05-04 04:23 25.78790 -80.28477 15 ft 5 kts 59°
2026-05-04 04:23 25.78800 -80.28461 14 ft 1 kts 55°
2026-05-04 04:23 25.78826 -80.28423 14 ft 12 kts 51°
2026-05-04 04:24 25.78868 -80.28367 15 ft 9 kts 52°
2026-05-04 04:24 25.78887 -80.28299 16 ft 9 kts 87°
2026-05-04 04:24 25.78889 -80.28229 15 ft 9 kts 87°
2026-05-04 04:24 25.78895 -80.28160 15 ft 9 kts 83°
2026-05-04 04:25 25.78902 -80.28092 16 ft 9 kts 83°
2026-05-04 04:25 25.78915 -80.28025 18 ft 12 kts 63°
2026-05-04 04:25 25.78938 -80.27927 15 ft 14 kts 94°
2026-05-04 04:25 25.78946 -80.27855 14 ft 8 kts 54°
2026-05-04 04:26 25.78992 -80.27825 14 ft 8 kts 20°
2026-05-04 04:26 25.79007 -80.27819 14 ft 1 kts 24°
2026-05-04 04:26 25.79020 -80.27800 14 ft 5 kts 80°
2026-05-04 04:26 25.79010 -80.27769 14 ft 3 kts 109°
2026-05-04 04:27 25.79006 -80.27754 14 ft 2 kts 109°
2026-05-04 04:27 25.79004 -80.27747 14 ft 0 kts 109°